Weather History for Bellefontaine, OH

Change the Weather History Date:

Thursday, May 15, 2014

  Actual Average (KDAY) Record (KDAY)
Temperature  
Mean Temperature 50 °F 61 °F  
Max Temperature 62 °F 71 °F 92 °F (1900)
Min Temperature 37 °F 51 °F 32 °F (1910)
Degree Days  
Heating Degree Days 14 6  
Month to date heating degree days 106  
Since 1 July heating degree days 5557  
Cooling Degree Days 0 2  
Month to date cooling degree days 18  
Year to date cooling degree days 28  
Moisture  
Dew Point 49 °F    
Average Humidity 92    
Maximum Humidity 100    
Minimum Humidity 76    
Precipitation  
Precipitation 0.26 in 0.15 in 1.91 in (2007)
Month to date precipitation 2.25  
Year to date precipitation 14.63  
Snow  
Snow 0.00 in 0.00 in 0.00 in ()
Month to date snowfall 0.0  
Since 1 July snowfall 23.3  
Snow Depth -    
Sea Level Pressure  
Sea Level Pressure 29.86 in    
Wind  
Wind Speed 12 mph (SW)    
Max Wind Speed 22 mph    
Max Gust Speed 29 mph    
Visibility 8 miles    
Events      
T = Trace of Precipitation, MM = Missing Value Source: NWS Daily Summary

Daily Weather History Graph

Daily Weather History Graph

Search for Another Location

Airport:

Trip Planner

Search our weather history database for the weather conditions in past years. The results will help you decide how hot, cold, wet, or windy it might be!

Date:

Astronomy

May. 15, 2014 Rise Set
Actual Time 6:19 AM EDT 8:44 PM EDT
Civil Twilight 5:48 AM EDT 9:15 PM EDT
Nautical Twilight 5:10 AM EDT 9:54 PM EDT
Astronomical Twilight 4:27 AM EDT 10:36 PM EDT
Moon 9:51 PM EDT (5/15) 7:05 AM EDT (5/15)
Length of Visible Light 15h 27m
Length of Day
14h 25m
Full, 99% of the Moon is Illuminated
May 15
Full
May 21
Last Quarter
May 28
New
Jun 5
First Quarter
Jun 13
Full

Hourly Weather History & Observations

Time (EDT) Temp. Windchill Dew Point Humidity Pressure Visibility Wind Dir Wind Speed Gust Speed Precip Events Conditions
12:05 AM 62.6 °F - - N/A% 29.87 in 10.0 mi SE 6.9 mph - 0.00 in   Overcast
12:25 AM 62.6 °F - - N/A% 29.87 in 2.0 mi ESE 8.1 mph - 0.10 in   Overcast
12:45 AM 62.6 °F - - N/A% 29.87 in 3.0 mi SE 10.4 mph - 0.19 in   Overcast
1:05 AM 62.6 °F - - N/A% 29.85 in 5.0 mi SE 5.8 mph - 0.00 in   Overcast
1:25 AM 62.6 °F - - N/A% 29.84 in 9.0 mi SE 6.9 mph - 0.00 in   Mostly Cloudy
1:45 AM 62.6 °F - - N/A% 29.83 in 5.0 mi SE 8.1 mph - 0.01 in   Scattered Clouds
2:05 AM 62.6 °F - - N/A% 29.83 in 2.0 mi SE 10.4 mph - 0.04 in   Mostly Cloudy
2:25 AM 62.6 °F - - N/A% 29.81 in 7.0 mi SSE 15.0 mph - 0.05 in   Mostly Cloudy
2:45 AM 62.6 °F - - N/A% 29.79 in 10.0 mi SSE 18.4 mph 24.2 mph 0.05 in   Scattered Clouds
3:05 AM 62.6 °F - 62.6 °F 100% 29.78 in 10.0 mi South 12.7 mph 20.7 mph 0.00 in   Clear
3:25 AM 62.6 °F - 62.6 °F 100% 29.76 in 10.0 mi SSE 12.7 mph - 0.00 in   Partly Cloudy
3:45 AM 62.6 °F - 62.6 °F 100% 29.75 in 10.0 mi SSE 11.5 mph 18.4 mph 0.00 in   Partly Cloudy
4:05 AM 62.6 °F - 62.6 °F 100% 29.75 in 10.0 mi SSE 12.7 mph 19.6 mph 0.00 in   Partly Cloudy
4:25 AM 62.6 °F - 62.6 °F 100% 29.75 in 10.0 mi South 13.8 mph 23.0 mph 0.00 in   Scattered Clouds
4:45 AM 62.6 °F - 62.6 °F 100% 29.74 in 10.0 mi SSE 13.8 mph 18.4 mph 0.00 in   Partly Cloudy
5:05 AM 62.6 °F - 62.6 °F 100% 29.74 in 10.0 mi South 17.3 mph 23.0 mph 0.00 in   Partly Cloudy
5:25 AM 62.6 °F - 62.6 °F 100% 29.73 in 10.0 mi SSE 12.7 mph - 0.00 in   Mostly Cloudy
5:45 AM 62.6 °F - 62.6 °F 100% 29.73 in 5.0 mi SSE 13.8 mph 20.7 mph 0.02 in   Overcast
6:05 AM 60.8 °F - 60.8 °F 100% 29.73 in 3.0 mi SSE 13.8 mph - 0.02 in   Overcast
6:25 AM 60.8 °F - 60.8 °F 100% 29.72 in 5.0 mi SSE 13.8 mph 18.4 mph 0.05 in   Overcast
6:45 AM 60.8 °F - - N/A% 29.72 in 4.0 mi South 15.0 mph 18.4 mph 0.06 in   Overcast
7:05 AM 60.8 °F - - N/A% 29.71 in 2.0 mi SSE 12.7 mph - 0.02 in   Overcast
7:25 AM 60.8 °F - - N/A% 29.72 in 1.2 mi South 10.4 mph - 0.04 in   Overcast
7:45 AM 55.4 °F - 55.4 °F 100% 29.75 in 4.0 mi WSW 13.8 mph 26.5 mph 0.09 in   Overcast
8:05 AM 55.4 °F - 55.4 °F 100% 29.76 in 4.0 mi SW 13.8 mph 23.0 mph 0.01 in   Overcast
8:25 AM 55.4 °F - 55.4 °F 100% 29.76 in 3.0 mi WSW 10.4 mph - 0.03 in   Overcast
8:45 AM 53.6 °F - 53.6 °F 100% 29.77 in 5.0 mi WSW 13.8 mph - 0.03 in   Overcast
9:05 AM 53.6 °F - 53.6 °F 100% 29.77 in 10.0 mi SW 11.5 mph 19.6 mph 0.00 in   Overcast
9:25 AM 53.6 °F - 53.6 °F 100% 29.78 in 10.0 mi SW 15.0 mph 25.3 mph 0.00 in   Overcast
9:45 AM 53.6 °F - 53.6 °F 100% 29.79 in 8.0 mi SW 17.3 mph 23.0 mph 0.00 in   Overcast
10:05 AM 51.8 °F - 51.8 °F 100% 29.79 in 10.0 mi WSW 19.6 mph 25.3 mph 0.00 in   Overcast
10:25 AM 51.8 °F - 51.8 °F 100% 29.80 in 10.0 mi SW 15.0 mph 24.2 mph 0.00 in   Overcast
10:45 AM 50.0 °F - 50.0 °F 100% 29.81 in 10.0 mi SW 13.8 mph 24.2 mph 0.00 in   Overcast
11:05 AM 51.8 °F - 51.8 °F 100% 29.81 in 10.0 mi SW 18.4 mph 24.2 mph 0.00 in   Overcast
11:25 AM 51.8 °F - 51.8 °F 100% 29.82 in 10.0 mi SW 17.3 mph 23.0 mph 0.00 in   Overcast
11:45 AM 50.0 °F - 50.0 °F 100% 29.83 in 10.0 mi SW 20.7 mph 27.6 mph 0.00 in   Overcast
12:05 PM 51.8 °F - 48.2 °F 88% 29.84 in 10.0 mi SW 13.8 mph 24.2 mph 0.00 in   Overcast
12:25 PM 51.8 °F - 48.2 °F 88% 29.85 in 10.0 mi SW 21.9 mph 25.3 mph 0.00 in   Overcast
12:45 PM 51.8 °F - 48.2 °F 88% 29.86 in 10.0 mi SW 15.0 mph 26.5 mph 0.00 in   Overcast
1:05 PM 51.8 °F - 48.2 °F 88% 29.86 in 10.0 mi WSW 15.0 mph 27.6 mph 0.00 in   Overcast
1:25 PM 50.0 °F - 48.2 °F 94% 29.88 in 10.0 mi SW 15.0 mph - 0.00 in   Overcast
1:45 PM 50.0 °F - 48.2 °F 94% 29.88 in 10.0 mi SSW 16.1 mph 28.8 mph 0.00 in   Overcast
2:05 PM 51.8 °F - 48.2 °F 88% 29.88 in 10.0 mi SSW 17.3 mph 24.2 mph 0.00 in   Overcast
3:05 PM 50.0 °F - 48.2 °F 94% 29.89 in 10.0 mi SSW 16.1 mph - 0.00 in   Overcast
3:25 PM 50.0 °F - 46.4 °F 87% 29.89 in 10.0 mi SW 13.8 mph 23.0 mph 0.00 in   Overcast
3:45 PM 51.8 °F - 46.4 °F 82% 29.89 in 10.0 mi SW 11.5 mph 19.6 mph 0.00 in   Overcast
4:05 PM 51.8 °F - 46.4 °F 82% 29.90 in 10.0 mi WSW 13.8 mph - 0.00 in   Overcast
4:25 PM 51.8 °F - 46.4 °F 82% 29.90 in 10.0 mi WSW 17.3 mph 25.3 mph 0.00 in   Overcast
4:45 PM 51.8 °F - 44.6 °F 76% 29.91 in 10.0 mi WSW 13.8 mph - 0.00 in   Overcast
5:05 PM 51.8 °F - 44.6 °F 76% 29.92 in 10.0 mi SW 13.8 mph 23.0 mph 0.00 in   Overcast
5:25 PM 50.0 °F - 44.6 °F 82% 29.93 in 10.0 mi West 20.7 mph - 0.00 in   Overcast
5:45 PM 48.2 °F - 44.6 °F 87% 29.94 in 10.0 mi West 15.0 mph 20.7 mph 0.00 in   Overcast
6:05 PM 48.2 °F - 42.8 °F 82% 29.95 in 10.0 mi West 15.0 mph 20.7 mph 0.00 in   Overcast
6:25 PM 46.4 °F 40.1 °F 42.8 °F 87% 29.95 in 10.0 mi West 15.0 mph 19.6 mph 0.00 in   Overcast
6:45 PM 46.4 °F 40.1 °F 42.8 °F 87% 29.96 in 4.0 mi West 15.0 mph 26.5 mph 0.00 in   Overcast
7:05 PM 44.6 °F 39.2 °F 44.6 °F 100% 29.98 in 4.0 mi West 10.4 mph - 0.00 in   Overcast
7:25 PM 44.6 °F 37.8 °F 44.6 °F 100% 29.98 in 10.0 mi West 15.0 mph 19.6 mph 0.00 in   Overcast
7:45 PM 44.6 °F 39.2 °F 41.0 °F 87% 29.99 in 10.0 mi West 10.4 mph 19.6 mph 0.00 in   Mostly Cloudy
8:05 PM 44.6 °F 38.4 °F 39.2 °F 81% 30.00 in 10.0 mi West 12.7 mph 18.4 mph 0.00 in   Overcast
8:25 PM 44.6 °F 38.8 °F 39.2 °F 81% 30.01 in 10.0 mi West 11.5 mph 19.6 mph 0.00 in   Overcast
8:45 PM 44.6 °F 39.7 °F 39.2 °F 81% 30.02 in 10.0 mi WNW 9.2 mph - 0.00 in   Overcast
9:05 PM 44.6 °F 38.8 °F 39.2 °F 81% 30.02 in 10.0 mi WNW 11.5 mph - 0.00 in   Overcast
9:25 PM 42.8 °F 37.0 °F 37.4 °F 81% 30.03 in 10.0 mi WNW 10.4 mph 16.1 mph 0.00 in   Overcast
9:45 PM 42.8 °F 37.0 °F 37.4 °F 81% 30.03 in 10.0 mi WNW 10.4 mph 16.1 mph 0.00 in   Mostly Cloudy
10:05 PM 41.0 °F 36.4 °F 37.4 °F 87% 30.03 in 10.0 mi WNW 6.9 mph - 0.00 in   Partly Cloudy
10:25 PM 39.2 °F 37.0 °F 37.4 °F 93% 30.04 in 10.0 mi WNW 3.5 mph - 0.00 in   Clear
10:45 PM 39.2 °F - 37.4 °F 93% 30.03 in 10.0 mi Calm Calm - 0.00 in   Clear
11:05 PM 39.2 °F - 37.4 °F 93% 30.03 in 10.0 mi Calm Calm - 0.00 in   Clear
11:25 PM 39.2 °F - 37.4 °F 93% 30.02 in 10.0 mi Calm Calm - 0.00 in   Clear
11:45 PM 37.4 °F - 37.4 °F 100% 30.02 in 10.0 mi Calm Calm - 0.00 in   Clear